Weather History for Falls City, NE

Change the Weather History Date:

Sunday, May 12, 2013

  Actual Average Record
Temperature  
Mean Temperature 50 °F -  
Max Temperature 66 °F 74 °F 95 °F (1956)
Min Temperature 35 °F 49 °F 35 °F (2013)
Degree Days  
Heating Degree Days 16    
Moisture  
Dew Point 30 °F    
Average Humidity 45    
Maximum Humidity 78    
Minimum Humidity 23    
Precipitation  
Precipitation 0.00 in - - ()
Sea Level Pressure  
Sea Level Pressure 30.22 in    
Wind  
Wind Speed 3 mph (West)    
Max Wind Speed 7 mph    
Max Gust Speed -    
Visibility 10 miles    
Events      
Averages and records for this station are not official NWS values.
T = Trace of Precipitation, MM = Missing Value Source: NWS Daily Summary

Daily Weather History Graph

Daily Weather History Graph

Search for Another Location

Airport:

Trip Planner

Search our weather history database for the weather conditions in past years. The results will help you decide how hot, cold, wet, or windy it might be!

Date:

Astronomy

May. 12, 2013 Rise Set
Actual Time 6:09 AM CDT 8:28 PM CDT
Civil Twilight 5:39 AM CDT 8:58 PM CDT
Nautical Twilight 5:01 AM CDT 9:36 PM CDT
Astronomical Twilight 4:20 AM CDT 10:18 PM CDT
Moon 8:05 AM CDT (5/12) 10:56 PM CDT (5/12)
Length of Visible Light 15h 19m
Length of Day
14h 18m
Waxing Crescent, 7% of the Moon is Illuminated
May 12
Waxing Crescent
May 17
First Quarter
May 24
Full
May 31
Last Quarter
Jun 8
New

Hourly Weather History & Observations

Time (CDT) Temp. Windchill Dew Point Humidity Pressure Visibility Wind Dir Wind Speed Gust Speed Precip Events Conditions
12:53 AM 44.1 °F 42.5 °F 25.0 °F 47% 30.25 in 10.0 mi NNW 3.5 mph - N/A   Clear
1:53 AM 42.1 °F 39.2 °F 26.1 °F 53% 30.26 in 10.0 mi WNW 4.6 mph - N/A   Clear
2:53 AM 39.9 °F - 26.1 °F 58% 30.25 in 10.0 mi Calm Calm - N/A   Clear
3:53 AM 37.0 °F 31.6 °F 28.0 °F 70% 30.27 in 10.0 mi WNW 6.9 mph - N/A   Clear
4:53 AM 35.1 °F 32.2 °F 28.9 °F 78% 30.27 in 10.0 mi NW 3.5 mph - N/A   Partly Cloudy
5:53 AM 35.1 °F 32.2 °F 28.0 °F 76% 30.27 in 10.0 mi NW 3.5 mph - N/A   Clear
6:53 AM 37.9 °F 34.4 °F 30.0 °F 73% 30.29 in 10.0 mi WNW 4.6 mph - N/A   Mostly Cloudy
7:53 AM 42.8 °F 41.1 °F 32.0 °F 66% 30.28 in 10.0 mi NW 3.5 mph - N/A   Mostly Cloudy
8:53 AM 50.0 °F - 34.0 °F 54% 30.28 in 10.0 mi ENE 3.5 mph - N/A   Clear
9:53 AM 53.1 °F - 28.0 °F 38% 30.29 in 10.0 mi Calm Calm - N/A   Clear
10:53 AM 57.0 °F - 28.0 °F 33% 30.29 in 10.0 mi Calm Calm - N/A   Overcast
11:53 AM 59.0 °F - 28.9 °F 32% 30.27 in 10.0 mi Calm Calm - N/A   Partly Cloudy
12:53 PM 60.1 °F - 27.0 °F 28% 30.25 in 10.0 mi Calm Calm - N/A   Partly Cloudy
1:53 PM 62.1 °F - 28.9 °F 29% 30.22 in 10.0 mi Variable 4.6 mph - N/A   Clear
2:53 PM 63.0 °F - 28.9 °F 28% 30.20 in 10.0 mi Variable 4.6 mph - N/A   Mostly Cloudy
3:53 PM 64.9 °F - 32.0 °F 29% 30.18 in 10.0 mi West 5.8 mph - N/A   Partly Cloudy
4:53 PM 63.0 °F - 32.0 °F 31% 30.16 in 10.0 mi Variable 4.6 mph - N/A   Mostly Cloudy
5:53 PM 64.9 °F - 26.1 °F 23% 30.15 in 10.0 mi Variable 3.5 mph - N/A   Overcast
6:53 PM 62.1 °F - 34.0 °F 35% 30.14 in 10.0 mi SSW 5.8 mph - N/A   Mostly Cloudy
7:53 PM 63.0 °F - 30.9 °F 30% 30.12 in 10.0 mi Calm Calm - N/A   Clear
8:53 PM 59.0 °F - 33.1 °F 38% 30.13 in 10.0 mi SE 3.5 mph - N/A   Clear
9:53 PM 57.0 °F - 33.1 °F 40% 30.14 in 10.0 mi SE 3.5 mph - N/A   Clear
10:53 PM 55.0 °F - 33.1 °F 43% 30.14 in 10.0 mi South 4.6 mph - N/A   Clear
11:53 PM 52.0 °F - 35.1 °F 53% 30.14 in 10.0 mi South 6.9 mph - N/A   Clear